Location: Newark
(52.3735°N, 16.9806°E)
Time: 06:02:05
(UTC+00:00)

NOAA 19 - Visible Passes

Search period start: 05 December 2021 00:00
Search period end: 15 December 2021 00:00
Orbit: 840 x 861 km, 99.2° (Epoch: 04 December)

Date Brightness Start Highest point End Pass type
(mag) Time Alt. Az. Time Alt. Az. Time Alt. Az.
05 Dec 8.0 05:12:48 10° NE 05:16:19 17° E 05:19:49 10° SE visible
05 Dec 5.3 16:44:11 10° SE 16:49:28 53° ENE 16:54:48 10° N visible
05 Dec 6.9 18:25:38 10° SSW 18:30:24 30° W 18:35:12 10° NNW visible
06 Dec 8.2 05:01:35 10° NE 05:04:19 14° E 05:07:01 10° ESE visible
06 Dec 5.5 16:32:34 10° SE 16:37:42 44° ENE 16:42:54 10° N visible
06 Dec 6.5 18:13:28 10° SSW 18:18:28 37° W 18:23:33 10° NNW visible
07 Dec 8.4 04:50:57 10° ENE 04:52:17 11° E 04:53:35 10° E visible
07 Dec 5.7 16:21:01 10° SE 16:25:59 37° ENE 16:30:59 10° N visible
07 Dec 6.2 18:01:22 10° S 18:06:35 45° W 18:11:51 10° NNW visible
08 Dec 5.9 16:09:32 10° ESE 16:14:17 31° ENE 16:19:02 10° N visible
08 Dec 5.8 17:49:21 10° S 17:54:42 55° WSW 18:00:06 10° NNW visible
09 Dec 6.8 06:05:07 10° NNE 06:10:20 40° E 06:15:32 10° SSE visible
09 Dec 6.1 15:58:08 10° ESE 16:02:35 26° NE 16:07:05 10° N visible
09 Dec 5.5 17:37:24 10° S 17:42:50 67° WSW 17:48:20 10° NNW visible
09 Dec 8.1 19:22:28 10° WSW 19:24:34 12° W 19:26:41 10° WNW visible
10 Dec 7.2 05:53:26 10° NNE 05:58:26 33° E 06:03:24 10° SSE visible
10 Dec 6.3 15:46:46 10° ESE 15:50:54 23° NE 15:55:05 10° N visible
10 Dec 5.2 17:25:32 10° SSE 17:31:00 81° WSW 17:36:33 10° NNW visible
10 Dec 7.8 19:09:26 10° WSW 19:12:33 15° W 19:15:41 10° NW visible
11 Dec 7.5 05:41:49 10° NE 05:46:30 27° E 05:51:11 10° SSE visible
11 Dec 6.4 15:35:30 10° E 15:39:15 19° NE 15:43:03 10° N visible
11 Dec 5.1 17:13:43 10° SSE 17:19:11 84° ENE 17:24:43 10° NNW visible
11 Dec 7.6 18:56:46 10° SW 19:00:33 19° W 19:04:21 10° NW visible
12 Dec 7.8 05:30:15 10° NE 05:34:34 23° E 05:38:51 10° SE visible
12 Dec 6.6 15:24:20 10° E 15:27:38 17° NE 15:30:57 10° N visible
12 Dec 5.1 17:01:58 10° SSE 17:07:23 70° ENE 17:12:52 10° NNW visible
12 Dec 7.3 18:44:18 10° SW 18:48:34 23° W 18:52:53 10° NW visible
13 Dec 8.0 05:18:47 10° NE 05:22:35 19° E 05:26:23 10° SE visible
13 Dec 6.8 15:13:16 10° ENE 15:16:01 14° NE 15:18:46 10° NNE visible
13 Dec 5.2 16:50:16 10° SE 16:55:37 58° ENE 17:01:01 10° N visible
13 Dec 7.0 18:31:59 10° SSW 18:36:38 28° W 18:41:19 10° NW visible
14 Dec 8.1 05:07:27 10° NE 05:10:35 15° E 05:13:41 10° ESE visible
14 Dec 5.4 16:38:38 10° SE 16:43:51 48° ENE 16:49:08 10° N visible
14 Dec 6.7 18:19:45 10° SSW 18:24:41 34° W 18:29:41 10° NNW visible
